Location: Luxembourg
(49.6117°N, 6.1300°E)
Time: 03:48:52
(UTC+01:00)

ISS - Pass Details

Date: 04 December 2021
Orbit: 413 x 422 km, 51.6° (Epoch: 22 January)

Event Time Altitude Azimuth Distance (km) Brightness Sun altitude
Rises 17:49:32 0° 287° (WNW) 2,386 1.0 -11.2°
Reaches altitude 10° 17:51:39 10° 287° (WNW) 1,517 -0.1 -11.5°
Maximum altitude 17:55:04 85° 201° (SSW) 430 -3.7 -12.1°
Enters shadow 17:57:53 14° 112° (ESE) 1,278 -1.7 -12.5°
